Location: *
(45.5224°N, 122.7471°W)
Time: 20:21:08
(UTC+00:00)

Cosmos 1805 - Pass Details

Date: 09 April 2020
Orbit: 525 x 531 km, 82.5° (Epoch: 02 June)

Event Time Altitude Azimuth Distance (km) Brightness Sun altitude
Rises 12:49:13 0° 351° (N) 2,674 7.0 -8.6°
Reaches altitude 10° 12:51:23 10° 351° (N) 1,779 6.1 -8.2°
Maximum altitude 12:55:18 89° 254° (WSW) 533 3.2 -7.6°
Drops below altitude 10° 12:59:10 10° 173° (S) 1,762 5.8 -6.9°
Sets 13:01:17 0° 173° (S) 2,646 6.7 -6.6°
